Regional Weather Roundup
Issued by NWS

Home | Current Version | Previous Version | Text Only | Print | Product List | Glossary Off
Versions: 1 2 3 4 5 6 7 8 9 10 11 12 13 14 15 16 17 18 19 20 21 22 23 24 25 26 27 28 29 30 31 32 33 34 35 36 37 38 39 40 41 42 43 44 45 46 47 48 49 50

457
ASUS44 KLIX 172301
RWRLA
LOUISIANA WEATHER ROUNDUP
NATIONAL WEATHER SERVICE NEW ORLEANS LA
600 PM CDT WED SEP 17 2014

NOTE: "FAIR" INDICATES FEW OR NO CLOUDS BELOW 12,000 FEET WITH NO
      SIGNIFICANT WEATHER AND/OR OBSTRUCTIONS TO VISIBILITY.
      SKY/WX - SKY CONDITION AND SIGNIFICANT WEATHER.
      TMP - AIR TEMPERATURE.    DP   - DEWPOINT TEMPERATURE.
      RH  - RELATIVE HUMIDITY.  PRES - PRESSURE.
      HX  - HEAT INDEX.         WCI  - WIND CHILL INDEX.

*  THESE STATIONS ARE NOT NWS OR FAA STATIONS AND ARE NOT UNDER
   NWS QUALITY CONTROL.

LAZ040-048-061>063-065-066-069-180000-
SOUTHEAST LOUISIANA

CITY           SKY/WX    TMP DP  RH WIND       PRES   REMARKS
N.O. AUDUBON     N/A     87  76  69 MISG        N/A  HX  97
N.O. INTL ARPT PTSUNNY   88  68  51 S3        29.90S
N.O. LAKEFRONT CLOUDY    85  72  65 N3        29.91R
N.O. DOWNTOWN* CLOUDY    88  72  58 SE3       29.90S
SLIDELL        PTSUNNY   83  73  72 SW5       29.90R
BATON ROUGE    PTSUNNY   88  71  57 NE5       29.90S
BOOTHVILLE     CLOUDY    83  73  72 CALM      29.92R
BELLE CHASSE   PTSUNNY   85  72  65 S8        29.89F
BOGALUSA*      NOT AVBL
GALLIANO*      NOT AVBL
NEW ROADS*     FAIR      86  73  64 NE3       29.90S
GONZALES*      FAIR      86  74  67 CALM      29.89F
HAMMOND*       NOT AVBL
HOUMA*         PTSUNNY   75  72  88 CALM      29.91
PORT FOURCHON* PTCLDY    84  73  70 SW8       29.94S

$$

LAZ041-044-053-054-180000-
SOUTHWEST LOUISIANA

CITY           SKY/WX    TMP DP  RH WIND       PRES   REMARKS
LAKE CHARLES   LGT RAIN  77  76  96 SW3       29.91S FOG
LAFAYETTE      MOSUNNY   83  77  82 W10       29.90S
PATTERSON      MOSUNNY   84  75  74 SW10      29.93
SALT POINT       N/A     86  75  69 VRB5      29.90S HX  95
NEW IBERIA     MOSUNNY   82  74  76 W7        29.91S
CHENAULT AIRPK PTSUNNY   77  75  94 SW6       29.91F

$$

LAZ027-028-180000-
CENTRAL LOUISIANA

CITY           SKY/WX    TMP DP  RH WIND       PRES   REMARKS
FORT POLK      MOSUNNY   84  72  67 S8        29.90S
ALEXANDRIA INT MOSUNNY   86  72  62 E7        29.88S
ALEXANDRIA     MOSUNNY   87  72  60 SE3       29.90S

$$

LAZ001-002-180000-
NORTHWEST LOUISIANA

CITY           SKY/WX    TMP DP  RH WIND       PRES   REMARKS
SHREVEPORT     PTSUNNY   88  69  53 E9        29.87S
BARKSDALE AFB  MOSUNNY   83  69  61 SE6       29.88S
DTN SHREVEPORT MOSUNNY   85  69  58 SE6       29.88S

$$

LAZ014-016-180000-
NORTHEAST LOUISIANA

CITY           SKY/WX    TMP DP  RH WIND       PRES   REMARKS
MONROE         SUNNY     89  68  49 CALM      29.90S
TALLULAH       SUNNY     89  68  49 VRB3      29.89S

$$




USA.gov is the U.S. government's official web portal to all federal, state and local government web resources and services.